Voltar ao catálogo

STARLINK-2684

AtivoComunicaçõesVLEO
NORAD 48471·PAYLOAD·🇺🇸 United States

Lançado May 9, 2021 de Cape Canaveral Space Force Station

Loading…

Próximas Passagens (próximas 24 horas)

TLE

AtualizadoSource: CelesTrak SupGP

Época: Sep 14, 2026, 20:44 UTC

1 48471C 21040AV  26257.86437500  .00044858  00000+0  14427-2 0  2571
2 48471  53.1600  30.6760 0001206  70.5143  34.1167 15.31675132    19

Acompanhe STARLINK-2684 em tempo real com AllMySat

Download on the App Store